This is the latest recevied weather packets stored in our database for station/object N8SDR. If no packets are shown the sender has not sent any weather packets the latest 10 day(s).
| Time | Temp. | Humidity | Pressure | Rain* | Wind** | Luminosity | Snow |
|---|---|---|---|---|---|---|---|
| 1778032345 | 15° C | 99% | 1004.2 hPa | 3.05 mm | - | 0 W/m² | - |
| 1778032042 | 15° C | 99% | 1004.1 hPa | 3.05 mm | - | 0 W/m² | - |
| 1778031738 | 15° C | 99% | 1004 hPa | 4.83 mm | - | 0 W/m² | - |
| 1778031435 | 15° C | 99% | 1004.1 hPa | 3.05 mm | - | 0 W/m² | - |
| 1778031132 | 15° C | 99% | 1004 hPa | 0 mm | - | 0 W/m² | - |
| 1778030828 | 15° C | 99% | 1004 hPa | 0 mm | - | 0 W/m² | - |
| 1778030525 | 15° C | 99% | 1003.7 hPa | 1.27 mm | - | 0 W/m² | - |
| 1778030223 | 15° C | 99% | 1003.5 hPa | 3.05 mm | - | 0 W/m² | - |
| 1778029918 | 15° C | 99% | 1003.5 hPa | 3.05 mm | - | 0 W/m² | - |
| 1778029617 | 15° C | 99% | 1003.9 hPa | 4.83 mm | - | 0 W/m² | - |
| 1778029314 | 15° C | 99% | 1003.8 hPa | 6.6 mm | - | 0 W/m² | - |
| 1778029011 | 15.56° C | 99% | 1004 hPa | 6.1 mm | - | 0 W/m² | - |
| 1778028708 | 15.56° C | 99% | 1003.9 hPa | 6.1 mm | - | 0 W/m² | - |
| 1778028404 | 15.56° C | 99% | 1004.1 hPa | 4.32 mm | - | 0 W/m² | - |
| 1778028102 | 15.56° C | 99% | 1004.1 hPa | 1.27 mm | - | 0 W/m² | - |
| 1778027798 | 15.56° C | 99% | 1003.9 hPa | 0 mm | - | 0 W/m² | - |
| 1778027494 | 15.56° C | 99% | 1003.8 hPa | 0 mm | - | 0 W/m² | - |
| 1778027190 | 15.56° C | 99% | 1003.7 hPa | 0 mm | - | 0 W/m² | - |
| 1778026886 | 15.56° C | 99% | 1003.4 hPa | 1.78 mm | - | 0 W/m² | - |
| 1778026582 | 15.56° C | 99% | 1003.3 hPa | 1.78 mm | - | 0 W/m² | - |
| 1778026280 | 15.56° C | 99% | 1003.3 hPa | 1.27 mm | - | 1 W/m² | - |
| 1778025977 | 15.56° C | 99% | 1003.4 hPa | 1.78 mm | - | 2 W/m² | - |
| 1778025674 | 15.56° C | 99% | 1003.2 hPa | 4.83 mm | - | 3 W/m² | - |
| 1778025372 | 15.56° C | 99% | 1003.4 hPa | 1.27 mm | - | 4 W/m² | - |
| 1778025069 | 16.11° C | 99% | 1003.5 hPa | 0 mm | - | 4 W/m² | - |
* Rain latest hour (hover to see other rain measurements)
** Current wind speed in m/s (hover to see current wind gust speed)